Regional Weather Roundup
Issued by NWS Midland/Odessa, TX

Skip options and go directly to product.
Home | Oldest Version | Next Version | Current Version | All | Text Only | Save Text | Print | Product List | Glossary On

Skip product version selection by date and time.   
532
ASUS44 KMAF 200102
RWRMAF
MIDLAND AREA WEATHER ROUNDUP
NATIONAL WEATHER SERVICE MIDLAND TX
800 PM CDT FRI SEP 19 2014

...IN SOUTHWEST TEXAS AND SOUTHEAST NEW MEXICO...

CITY           SKY/WX    TMP DP  RH WIND       PRES   REMARKS
ALPINE         PTCLDY    73  66  80 NE5       30.07R
ANDREWS        FAIR      72  67  84 SE9       29.97R
ARTESIA        NOT AVBL
BIG SPRING     MOCLDY    74  69  85 E7        29.97S
CARLSBAD       LGT RAIN  72  32  23 NE7       29.95R
DRYDEN           N/A     88  67  49 SE16      29.87R
FORT STOCKTON  MOCLDY    76  70  82 E13       29.92R
GUAD PASS      PTCLDY    72  61  68 CALM      29.94F
HOBBS          CLOUDY    66  66 100 E9        30.00R
MARFA          PTCLDY    73  64  73 E10       30.04R
MIDLAND AIRPK  NOT AVBL
MIDLAND INTL   MOCLDY    74  69  85 E13       29.94S
ODESSA         PTCLDY    74  68  81 SE12      29.95S
PECOS          CLOUDY    77  69  76 NE5       29.90R
PRESIDIO       FAIR      91  61  37 CALM      29.84R
SEMINOLE       MOCLDY    69  69  98 CALM      29.98S
SNYDER         CLOUDY    74  68  82 SE7       29.96S
WINK           CLOUDY    78  70  76 E9        29.91R
$$
...OTHER STATIONS IN TEXAS...

CITY           SKY/WX    TMP DP  RH WIND       PRES   REMARKS
ABILENE        CLOUDY    79  69  71 SE14      29.93R
AMARILLO       PTCLDY    70  64  81 SE8       30.01S
AUSTIN         MOCLDY    77  72  84 CALM      29.87F
BROWNSVILLE    MOCLDY    84  79  85 SE8       29.81R
CORPUS CHRISTI MOCLDY    82  77  84 E13       29.84R
DALLAS FTW     PTCLDY    83  66  56 SE8       29.89S
DEL RIO        PTCLDY    86  70  58 S12       29.82R
EL PASO        PTCLDY    81  60  48 VRB3      29.94R
HOUSTON INT    MOCLDY    78  74  87 SE8       29.89R
LUBBOCK        LGT RAIN  70  68  93 SE5       29.99S
SAN ANGELO     CLOUDY    76  70  82 E6        29.92R
SAN ANTONIO    MOCLDY    82  72  71 E13       29.88R
WACO           MOCLDY    80  71  74 SE6       29.89S
WICHITA FALLS  NOT AVBL
$$
...OTHER LOCATIONS IN NEW MEXICO...

CITY           SKY/WX    TMP DP  RH WIND       PRES   REMARKS
ALAMAGORDO     CLEAR     75  63  64 CALM      29.97S
ALBUQUERQUE    PTCLDY    79  55  43 SW12      30.03R
CANNON AFB     PTCLDY    70  65  84 SE12      30.03S
CLOVIS           N/A     68  63  83 SE9       30.05S
HOLLOMAN AFB   CLEAR     77  64  62 N1        29.95S
ROSWELL        MOCLDY    71  66  84 E7        29.98R
RUIDOSO        CLOUDY    61  59  94 CALM      30.18R
SANTA FE       PTCLDY    75  51  43 S12       30.08S
TRUTH OR CONSE CLEAR     79  58  48 NE5       29.99R
TUCUMCARI      PTCLDY    74  59  59 S8        29.99R
$$

USA.gov is the U.S. government's official web portal to all federal, state and local government web resources and services.